Weather History for Bridgeport, CT

Change the Weather History Date:

Friday, March 8, 2013

  Actual Average Record
Temperature  
Mean Temperature 36 °F 37 °F  
Max Temperature 41 °F 45 °F 69 °F (1987)
Min Temperature 31 °F 29 °F 11 °F (1986)
Degree Days  
Heating Degree Days 29 28  
Month to date heating degree days 219 232  
Since 1 July heating degree days 3842 4119  
Cooling Degree Days 0 0  
Month to date cooling degree days 0 0  
Year to date cooling degree days 0 0  
Moisture  
Dew Point 31 °F    
Average Humidity 77    
Maximum Humidity 100    
Minimum Humidity 54    
Precipitation  
Precipitation 0.72 in 0.13 in 0.91 in (1995)
Month to date precipitation 0.88 1.00  
Year to date precipitation 7.90 6.89  
Snow  
Snow 9.00 in 0.20 in 9.00 in (2013)
Month to date snowfall 10.0 1.9  
Since 1 July snowfall 61.3 23.5  
Snow Depth 6.00 in    
Sea Level Pressure  
Sea Level Pressure 30.01 in    
Wind  
Wind Speed 9 mph (NNW)    
Max Wind Speed 20 mph    
Max Gust Speed 26 mph    
Visibility 3 miles    
Events Fog , Rain , Snow    
T = Trace of Precipitation, MM = Missing Value Source: NWS Daily Summary

Daily Weather History Graph

Daily Weather History Graph

Search for Another Location

Airport:

Trip Planner

Search our weather history database for the weather conditions in past years. The results will help you decide how hot, cold, wet, or windy it might be!

Date:

Astronomy

Mar. 08, 2013 Rise Set
Actual Time 6:15 AM EST 5:51 PM EST
Civil Twilight 5:47 AM EST 6:19 PM EST
Nautical Twilight 5:16 AM EST 6:51 PM EST
Astronomical Twilight 4:43 AM EST 7:23 PM EST
Moon 3:59 AM EST (3/8) 2:42 PM EST (3/8)
Length of Visible Light 12h 31m
Length of Day
11h 36m
Waning Crescent, 12% of the Moon is Illuminated
Mar 8
Waning Crescent
Mar 11
New
Mar 19
First Quarter
Mar 27
Full
Apr 3
Last Quarter

Hourly Weather History & Observations

Time (EST) Temp. Windchill Dew Point Humidity Pressure Visibility Wind Dir Wind Speed Gust Speed Precip Events Conditions
12:11 AM 33.8 °F 27.0 °F 32.0 °F 93% 30.01 in 3.0 mi NNW 8.1 mph - 0.01 in Snow Light Snow
12:20 AM 33.8 °F 29.6 °F 32.0 °F 93% 30.00 in 3.0 mi NNW 4.6 mph - 0.02 in Snow Light Snow
12:27 AM 33.8 °F 28.6 °F 32.0 °F 93% 30.01 in 2.5 mi NNW 5.8 mph - 0.02 in Snow Light Snow
12:45 AM 33.8 °F 28.6 °F 32.0 °F 93% 30.01 in 2.5 mi NNW 5.8 mph - 0.03 in Snow Light Snow
12:52 AM 33.8 °F 27.7 °F 32.0 °F 93% 30.01 in 2.5 mi NNW 6.9 mph - N/A Snow Light Snow
1:04 AM 33.8 °F 27.7 °F 32.0 °F 93% 30.01 in 1.5 mi NNW 6.9 mph - 0.01 in Snow Light Snow
1:15 AM 33.8 °F 27.7 °F 32.0 °F 93% 30.01 in 1.8 mi NNW 6.9 mph - 0.02 in Snow Light Snow
1:52 AM 33.1 °F 25.5 °F 30.9 °F 92% 29.99 in 1.2 mi NNW 9.2 mph - 0.04 in Snow Light Snow
2:52 AM 32.0 °F 23.0 °F 30.0 °F 92% 29.96 in 1.8 mi NW 11.5 mph 19.6 mph 0.04 in Snow Light Snow
2:59 AM 32.0 °F 23.0 °F 30.2 °F 93% 29.96 in 1.5 mi NNW 11.5 mph 20.7 mph 0.01 in Snow Light Snow
3:28 AM 32.0 °F 24.8 °F 30.2 °F 93% 29.96 in 1.2 mi NNW 8.1 mph - 0.03 in Snow Light Snow
3:39 AM 32.0 °F 27.5 °F 30.2 °F 93% 29.97 in 2.0 mi Variable 4.6 mph - 0.03 in Snow Light Snow
3:52 AM 32.0 °F 26.4 °F 30.0 °F 92% 29.97 in 3.0 mi NNW 5.8 mph - 0.03 in Snow Light Snow
4:35 AM 32.0 °F 25.6 °F 30.2 °F 93% 29.97 in 2.0 mi NNW 6.9 mph - 0.02 in Snow Light Snow
4:45 AM 32.0 °F 26.4 °F 30.2 °F 93% 29.97 in 1.5 mi NNW 5.8 mph - 0.02 in Snow Light Snow
4:52 AM 30.9 °F 24.3 °F 30.0 °F 96% 29.97 in 1.2 mi NW 6.9 mph - 0.03 in Snow Light Snow
5:10 AM 30.2 °F 23.4 °F 30.2 °F 100% 29.97 in 0.8 mi NW 6.9 mph - 0.02 in Snow Light Snow
5:24 AM 30.2 °F 22.6 °F 30.2 °F 100% 29.97 in 1.0 mi NW 8.1 mph - 0.04 in Snow Light Snow
5:42 AM 30.2 °F 22.6 °F 30.2 °F 100% 29.97 in 0.8 mi NW 8.1 mph - 0.06 in Snow Light Snow
5:52 AM 30.9 °F 22.2 °F 30.0 °F 96% 29.97 in 0.8 mi NW 10.4 mph - 0.08 in Snow Light Snow
6:31 AM 30.2 °F 21.9 °F 30.2 °F 100% 29.96 in 1.0 mi NNW 9.2 mph - 0.05 in Snow Light Snow
6:40 AM 30.2 °F 21.9 °F 30.2 °F 100% 29.97 in 0.5 mi NNW 9.2 mph - 0.06 in Fog , Snow Snow
6:47 AM 30.2 °F 21.9 °F 30.2 °F 100% 29.97 in 0.5 mi NNW 9.2 mph - 0.06 in Fog , Snow Snow
6:52 AM 30.2 °F 21.3 °F 30.2 °F 100% 29.97 in 0.5 mi NNW 10.4 mph - N/A Fog , Snow Snow
7:15 AM 30.2 °F 21.3 °F 30.2 °F 100% 29.97 in 0.8 mi NNW 10.4 mph - 0.01 in Snow Light Snow
7:24 AM 30.2 °F 21.9 °F 30.2 °F 100% 29.97 in 0.8 mi NNW 9.2 mph - 0.02 in Snow Light Snow
7:52 AM 30.9 °F 22.2 °F 30.0 °F 96% 29.98 in 0.8 mi North 10.4 mph - 0.03 in Snow Light Snow
8:08 AM 32.0 °F 24.2 °F 30.2 °F 93% 29.98 in 1.0 mi NNW 9.2 mph - 0.00 in Snow Light Snow
8:52 AM 32.0 °F 24.8 °F 30.9 °F 96% 29.99 in 1.0 mi North 8.1 mph - 0.03 in Snow Light Snow
9:21 AM 33.8 °F 24.8 °F 30.2 °F 87% 29.98 in 0.8 mi NNW 12.7 mph 21.9 mph 0.01 in Snow Light Snow
9:32 AM 33.8 °F 24.8 °F 30.2 °F 87% 29.98 in 0.5 mi North 12.7 mph - 0.02 in Fog , Snow Snow
9:49 AM 33.8 °F 25.8 °F 30.2 °F 87% 29.98 in 0.2 mi NNW 10.4 mph - 0.03 in Fog , Snow Snow
9:52 AM 33.1 °F 24.9 °F 30.9 °F 92% 29.99 in 0.5 mi NNW 10.4 mph 18.4 mph 0.04 in Fog , Snow Snow
10:52 AM 33.1 °F 25.5 °F 30.9 °F 92% 30.00 in 0.2 mi NNW 9.2 mph 17.3 mph 0.06 in Fog , Snow Snow
11:52 AM 33.8 °F 26.4 °F 32.0 °F 93% 30.00 in 0.5 mi NNW 9.2 mph - N/A Fog , Snow Snow
12:09 PM 33.8 °F 27.7 °F 32.0 °F 93% 30.00 in 0.8 mi NNW 6.9 mph - 0.01 in Snow Light Snow
12:20 PM 33.8 °F 28.6 °F 33.8 °F 100% 30.00 in 0.5 mi NNW 5.8 mph - 0.03 in Fog , Snow Snow
12:28 PM 33.8 °F 26.4 °F 32.0 °F 93% 30.00 in 0.8 mi North 9.2 mph - 0.03 in Snow Light Snow
12:36 PM 33.8 °F 27.7 °F 32.0 °F 93% 30.00 in 0.8 mi NNW 6.9 mph - 0.04 in Snow Light Snow
12:52 PM 34.0 °F 28.0 °F 33.1 °F 96% 30.01 in 0.8 mi North 6.9 mph - 0.05 in Snow Light Snow
1:52 PM 33.1 °F 30.0 °F 33.1 °F 100% 30.01 in 0.8 mi WNW 3.5 mph - 0.07 in Snow Light Snow
2:04 PM 33.8 °F 30.8 °F 32.0 °F 93% 30.01 in 1.0 mi NW 3.5 mph - 0.01 in Snow Light Snow
2:33 PM 35.6 °F 32.8 °F 33.8 °F 93% 30.01 in 3.0 mi NNW 3.5 mph - 0.03 in Snow Light Snow
2:52 PM 36.0 °F 32.1 °F 33.1 °F 89% 30.02 in 8.0 mi North 4.6 mph - 0.04 in Rain Light Rain
3:13 PM 35.6 °F 30.7 °F 33.8 °F 93% 30.02 in 10.0 mi North 5.8 mph - 0.00 in Rain Light Rain
3:52 PM 37.0 °F 33.3 °F 34.0 °F 89% 30.02 in 10.0 mi NNW 4.6 mph - 0.00 in   Overcast
4:52 PM 37.9 °F 32.7 °F 33.1 °F 83% 30.05 in 10.0 mi North 6.9 mph - N/A   Overcast
5:52 PM 39.9 °F 34.5 °F 30.0 °F 68% 30.07 in 10.0 mi NNW 8.1 mph - N/A   Overcast
6:52 PM 39.9 °F 32.5 °F 28.9 °F 65% 30.10 in 10.0 mi NNW 12.7 mph 20.7 mph N/A   Overcast
7:52 PM 39.9 °F 32.9 °F 27.0 °F 60% 30.13 in 10.0 mi North 11.5 mph - N/A   Overcast
8:52 PM 39.9 °F 32.5 °F 26.1 °F 58% 30.14 in 10.0 mi North 12.7 mph 23.0 mph N/A   Scattered Clouds
9:52 PM 39.9 °F 32.5 °F 25.0 °F 55% 30.14 in 10.0 mi North 12.7 mph - N/A   Clear
10:52 PM 39.9 °F 31.1 °F 25.0 °F 55% 30.14 in 10.0 mi NNW 17.3 mph 26.5 mph N/A   Clear
11:52 PM 39.9 °F 31.1 °F 24.1 °F 53% 30.14 in 10.0 mi North 17.3 mph 21.9 mph N/A   Clear